GW1984 Weather Reports


Display with metric or nautical units.
time (UTC)temp
F
wind
direction
speed
MPH
gust
MPH
rain 1hr
in
rain 24hr
in
rain mn
in
humidity
%
barometer
mb
20260504012014 64 175 4.0 6.0 0.00 0.02 0.02 51 1004.9
20260504011534 65 180 4.0 8.0 0.00 0.02 0.02 50 1004.8
20260504011013 65 184 4.0 8.0 0.00 0.02 0.02 49 1004.8
20260504010513 66 203 3.0 5.0 0.00 0.02 0.02 49 1004.8
20260504010030 66 222 1.0 3.0 0.00 0.02 0.02 48 1004.7
20260504005514 66 225 1.0 3.0 0.00 0.02 0.02 48 1004.7
20260504005014 66 213 2.0 5.0 0.00 0.02 0.02 47 1004.7
20260504004534 67 215 2.0 5.0 0.00 0.02 0.02 47 1004.6
20260504004014 67 219 2.0 6.0 0.00 0.02 0.02 47 1004.7
20260504003516 67 244 3.0 6.0 0.00 0.02 0.02 46 1004.6
20260504003033 68 201 3.0 8.0 0.00 0.02 0.02 46 1004.7
20260504002514 68 211 4.0 8.0 0.00 0.02 0.02 45 1004.7
20260504002013 68 221 3.0 9.0 0.00 0.02 0.02 45 1004.7
20260504001537 69 211 4.0 9.0 0.00 0.02 0.02 44 1004.7
20260504001014 69 227 3.0 12.0 0.00 0.02 0.02 44 1004.7
20260504000513 69 211 6.0 12.0 0.00 0.02 0.02 43 1004.7
20260504000032 69 275 3.0 11.0 0.00 0.02 0.02 43 1004.7
20260503235515 69 225 6.0 13.0 0.00 0.02 0.02 42 1004.8
20260503235013 69 252 7.0 13.0 0.00 0.02 0.02 42 1004.7
20260503234539 70 249 7.0 12.0 0.00 0.02 0.02 42 1004.8
20260503234014 70 242 6.0 12.0 0.00 0.02 0.02 42 1004.7
20260503233513 70 224 6.0 14.0 0.00 0.02 0.02 42 1004.8
20260503233039 70 240 8.0 14.0 0.00 0.02 0.02 41 1004.8
20260503232513 70 268 6.0 12.0 0.00 0.02 0.02 42 1004.9
20260503232014 70 265 5.0 12.0 0.00 0.02 0.02 42 1004.9
20260503231534 69 263 9.0 15.0 0.00 0.02 0.02 41 1004.9
20260503231015 69 227 9.0 15.0 0.00 0.02 0.02 42 1005.0
20260503230515 70 254 10.0 16.0 0.00 0.02 0.02 41 1005.1
20260503230030 70 240 9.0 16.0 0.00 0.02 0.02 41 1005.1
20260503225514 70 252 12.0 16.0 0.00 0.02 0.02 41 1005.1
20260503225014 70 267 7.0 17.0 0.00 0.02 0.02 44 1005.1
20260503224529 70 271 10.0 17.0 0.00 0.02 0.02 43 1005.1
20260503224012 69 238 9.0 17.0 0.00 0.02 0.02 44 1005.1
20260503223511 69 246 10.0 17.0 0.00 0.02 0.02 44 1005.2
20260503223029 69 250 12.0 18.0 0.00 0.02 0.02 42 1005.2
20260503222513 69 240 11.0 18.0 0.00 0.02 0.02 43 1005.2
20260503222011 70 225 9.0 19.0 0.00 0.02 0.02 41 1005.3
20260503221535 69 259 12.0 19.0 0.00 0.02 0.02 43 1005.2
20260503221013 70 272 12.0 19.0 0.00 0.02 0.02 43 1005.3
20260503220515 70 240 7.0 16.0 0.00 0.02 0.02 43 1005.2
20260503220030 69 267 11.0 17.0 0.00 0.02 0.02 43 1005.2
20260503215514 69 249 10.0 19.0 0.00 0.02 0.02 43 1005.2
20260503215012 69 227 12.0 21.0 0.00 0.02 0.02 44 1005.2
20260503214531 69 261 11.0 21.0 0.00 0.02 0.02 43 1005.2
20260503214012 68 257 10.0 21.0 0.00 0.02 0.02 44 1005.2
20260503213514 69 205 9.0 21.0 0.00 0.02 0.02 44 1005.3
20260503213033 69 222 9.0 18.0 0.00 0.02 0.02 44 1005.3
20260503212511 68 274 10.0 18.0 0.00 0.02 0.02 44 1005.4
20260503212012 68 252 8.0 18.0 0.00 0.02 0.02 46 1005.4
20260503211529 68 227 8.0 19.0 0.00 0.02 0.02 46 1005.6
20260503211011 68 236 8.0 22.0 0.00 0.02 0.02 46 1005.7
20260503210515 67 240 13.0 22.0 0.00 0.02 0.02 45 1005.7
20260503210033 67 249 12.0 24.0 0.00 0.02 0.02 44 1005.7
20260503205514 67 264 16.0 24.0 0.00 0.02 0.02 44 1005.8
20260503205014 67 236 10.0 21.0 0.00 0.02 0.02 46 1005.9
20260503204532 67 217 13.0 22.0 0.00 0.02 0.02 46 1006.0
20260503204011 67 250 14.0 23.0 0.00 0.02 0.02 46 1006.1
20260503203514 67 233 12.0 23.0 0.00 0.02 0.02 45 1006.1
20260503203033 66 228 14.0 25.0 0.00 0.02 0.02 48 1006.2
20260503202513 66 242 11.0 25.0 0.00 0.02 0.02 47 1006.3
20260503202013 66 254 13.0 23.0 0.00 0.02 0.02 47 1006.3
20260503201532 66 217 12.0 21.0 0.00 0.02 0.02 46 1006.5
20260503201015 66 259 11.0 25.0 0.00 0.02 0.02 46 1006.5
20260503200519 65 243 11.0 25.0 0.00 0.02 0.02 49 1006.6
20260503200031 65 219 13.0 24.0 0.00 0.02 0.02 47 1006.6
20260503195513 65 217 13.0 27.0 0.00 0.02 0.02 49 1006.6
20260503195018 65 242 12.0 27.0 0.00 0.02 0.02 48 1006.8
20260503194535 65 236 15.0 26.0 0.00 0.02 0.02 49 1006.8
20260503194010 64 213 16.0 31.0 0.00 0.02 0.02 48 1006.8
20260503193512 64 209 19.0 31.0 0.00 0.02 0.02 47 1006.9
20260503193028 64 214 16.0 30.0 0.00 0.02 0.02 46 1007.2
20260503192514 64 224 17.0 30.0 0.00 0.02 0.02 48 1007.4
20260503192014 65 228 12.0 26.0 0.00 0.02 0.02 46 1007.4
20260503191534 64 242 12.0 27.0 0.00 0.02 0.02 47 1007.5
20260503191011 64 232 15.0 27.0 0.00 0.02 0.02 48 1007.5
20260503190512 64 217 14.0 31.0 0.00 0.02 0.02 49 1007.6
20260503190030 64 235 13.0 31.0 0.00 0.02 0.02 48 1007.6
20260503185512 63 242 12.0 24.0 0.00 0.02 0.02 55 1007.7
20260503185010 62 183 13.0 27.0 0.00 0.02 0.02 57 1007.7
20260503184531 61 183 16.0 27.0 0.00 0.02 0.02 56 1007.8
20260503184014 61 182 15.0 26.0 0.00 0.02 0.02 57 1008.0
20260503183511 61 180 13.0 27.0 0.00 0.02 0.02 57 1008.1
20260503183031 60 169 15.0 28.0 0.00 0.02 0.02 57 1008.1
20260503182509 59 167 16.0 29.0 0.00 0.02 0.02 59 1008.5
20260503182014 59 209 18.0 29.0 0.00 0.02 0.02 58 1008.4
20260503181528 59 210 18.0 29.0 0.00 0.02 0.02 57 1008.5
20260503181010 59 218 17.0 26.0 0.00 0.02 0.02 55 1008.4
20260503180512 60 173 18.0 26.0 0.00 0.02 0.02 55 1008.5
20260503180032 60 195 13.0 28.0 0.00 0.02 0.02 58 1008.4
20260503175511 59 200 17.0 28.0 0.00 0.02 0.02 55 1008.4
20260503175013 59 209 18.0 31.0 0.00 0.02 0.02 55 1008.4
20260503174529 59 205 19.0 32.0 0.00 0.02 0.02 54 1008.5
20260503174009 59 188 20.0 32.0 0.00 0.02 0.02 55 1008.3
20260503173510 59 169 17.0 32.0 0.00 0.02 0.02 55 1008.4
20260503173030 59 186 19.0 29.0 0.00 0.02 0.02 53 1008.4
20260503172511 60 199 16.0 33.0 0.00 0.02 0.02 54 1008.5
20260503172010 59 180 17.0 33.0 0.00 0.02 0.02 54 1008.5
20260503171530 60 212 13.0 28.0 0.00 0.02 0.02 53 1008.6
20260503171011 59 192 17.0 28.0 0.00 0.02 0.02 54 1008.7
20260503170511 59 152 14.0 36.0 0.00 0.02 0.02 53 1008.7
20260503151009 49 173 4.0 14.0 0.02 0.02 0.02 81 1011.5
20260503150509 49 198 8.0 14.0 0.02 0.02 0.02 81 1011.9
20260503131016 49 195 8.0 14.0 0.00 0.00 0.00 66 1012.7
20260503130510 49 169 8.0 17.0 0.00 0.00 0.00 64 1012.8
20260503110513 48 211 6.0 15.0 0.00 0.00 0.00 59 1012.7
20260503090513 48 207 7.0 12.0 0.00 0.00 0.00 55 1013.1
20260503081530 47 216 7.0 11.0 0.00 0.00 0.00 56 1013.5
20260503081014 47 207 6.0 10.0 0.00 0.00 0.00 56 1013.6
20260503080513 46 196 5.0 9.0 0.00 0.00 0.00 56 1013.6
20260503072513 47 182 7.0 12.0 0.00 0.00 0.00 55 1013.6
20260503072011 47 191 6.0 12.0 0.00 0.00 0.00 56 1013.6
20260503071541 47 208 6.0 10.0 0.00 0.00 0.00 55 1013.7
20260503071013 47 216 6.0 10.0 0.00 0.00 0.00 55 1013.7
20260503070513 47 211 7.0 10.0 0.00 0.00 0.00 55 1013.8
20260503055009 48 217 6.0 10.0 0.00 0.00 0.00 53 1014.3
20260503054542 48 220 6.0 10.0 0.00 0.00 0.00 53 1014.3
20260503054013 48 224 6.0 10.0 0.00 0.00 0.00 53 1014.4
20260503053512 48 198 6.0 10.0 0.00 0.00 0.00 53 1014.5
20260503053033 48 186 6.0 10.0 0.00 0.00 0.00 53 1014.4
20260503052512 48 205 6.0 10.0 0.00 0.00 0.00 53 1014.4
20260503052015 48 202 5.0 9.0 0.00 0.00 0.00 53 1014.4
20260503051532 48 217 5.0 10.0 0.00 0.00 0.00 53 1014.5
20260503051012 48 185 6.0 10.0 0.00 0.00 0.00 53 1014.5
20260503050512 48 202 7.0 11.0 0.00 0.00 0.00 52 1014.6
20260503050037 48 202 7.0 11.0 0.00 0.00 0.00 53 1014.7
20260503045514 48 219 7.0 10.0 0.00 0.00 0.00 53 1014.6
20260503045013 48 193 5.0 9.0 0.00 0.00 0.00 53 1014.7
20260503044531 48 212 5.0 9.0 0.00 0.00 0.00 53 1014.7
20260503044010 48 196 6.0 9.0 0.00 0.00 0.00 53 1014.8
20260503043509 48 200 5.0 9.0 0.00 0.00 0.00 53 1014.9
20260503043030 48 212 6.0 9.0 0.00 0.00 0.00 52 1014.8
20260503042512 48 225 6.0 9.0 0.00 0.00 0.00 53 1014.8
20260503042014 48 199 6.0 9.0 0.00 0.00 0.00 53 1014.7
20260503041536 48 202 5.0 9.0 0.00 0.00 0.00 52 1014.9
20260503041009 48 198 5.0 9.0 0.00 0.00 0.00 53 1014.9
20260503040513 48 202 5.0 9.0 0.00 0.00 0.00 53 1015.0
20260503040028 48 212 5.0 8.0 0.00 0.00 0.00 53 1015.0
20260503035512 48 200 4.0 10.0 0.00 0.00 0.00 53 1015.0
20260503035012 48 198 5.0 10.0 0.00 0.00 0.00 52 1015.1
20260503034528 48 221 5.0 8.0 0.00 0.00 0.00 52 1015.1
20260503034013 48 213 5.0 9.0 0.00 0.00 0.00 52 1015.1
20260503033510 48 175 4.0 10.0 0.00 0.00 0.00 52 1015.1
20260503033028 49 207 6.0 10.0 0.00 0.00 0.00 52 1015.1
20260503032514 49 190 5.0 9.0 0.00 0.00 0.00 52 1015.2
20260503032012 49 222 4.0 8.0 0.00 0.00 0.00 52 1015.2
20260503031527 49 217 4.0 8.0 0.00 0.00 0.00 52 1015.3
20260503031013 49 208 4.0 8.0 0.00 0.00 0.00 52 1015.3
20260503030510 49 216 4.0 8.0 0.00 0.00 0.00 52 1015.4
20260503030041 49 215 5.0 8.0 0.00 0.00 0.00 52 1015.3
20260503025511 49 229 5.0 9.0 0.00 0.00 0.00 51 1015.5
20260503025012 49 205 5.0 9.0 0.00 0.00 0.00 51 1015.5
20260503024530 49 189 5.0 8.0 0.00 0.00 0.00 51 1015.5
20260503024011 50 198 5.0 9.0 0.00 0.00 0.00 51 1015.4
20260503023510 50 214 6.0 9.0 0.00 0.00 0.00 50 1015.4
20260503023027 50 216 5.0 9.0 0.00 0.00 0.00 50 1015.4
20260503022512 50 190 5.0 9.0 0.00 0.00 0.00 50 1015.4
20260503022012 50 200 4.0 10.0 0.00 0.00 0.00 50 1015.5
20260503021530 50 203 5.0 10.0 0.00 0.00 0.00 49 1015.5
20260503021010 51 193 5.0 7.0 0.00 0.00 0.00 49 1015.4
20260503020512 51 204 5.0 9.0 0.00 0.00 0.00 49 1015.4
20260503020030 51 192 5.0 9.0 0.00 0.00 0.00 48 1015.4
20260503015512 51 217 6.0 9.0 0.00 0.00 0.00 48 1015.4
20260503015011 51 211 5.0 8.0 0.00 0.00 0.00 48 1015.3
20260503014530 51 205 5.0 8.0 0.00 0.00 0.00 48 1015.2
20260503014012 51 209 5.0 8.0 0.00 0.00 0.00 48 1015.2
20260503013512 51 199 5.0 7.0 0.00 0.00 0.00 48 1015.2
20260503013032 52 207 3.0 7.0 0.00 0.00 0.00 48 1015.1
20260503012510 52 219 3.0 6.0 0.00 0.00 0.00 48 1015.2